Regional Weather Roundup
Issued by NWS

Home | Current Version | Previous Version | Text Only | Print | Product List | Glossary Off
Versions: 1 2 3 4 5 6 7 8 9 10 11 12 13 14 15 16 17 18 19 20 21 22 23 24 25 26 27 28 29 30 31 32 33 34 35 36 37 38 39 40 41 42 43 44 45 46 47 48 49 50

000
ASUS44 KMEG 060710
RWRTN
TENNESSEE HOURLY STATE WEATHER ROUNDUP
NATIONAL WEATHER SERVICE MEMPHIS TN
100 AM CST FRI MAR 06 2015

TNZ002-004-019-021-049-052-054-088>092-060800-
WEST TENNESSEE

CITY           SKY/WX    TMP DP  RH WIND       PRES   REMARKS
MEMPHIS INTL   CLEAR     19  10  68 N6        30.58S WCI  11
NWS MEMPHIS      N/A     13 N/A N/A MISG        N/A
JACKSON        PTCLDY    16   6  65 NE6       30.58S WCI   7
DYERSBURG      CLEAR     16  -4  41 NE3       30.62R
UNION CITY     CLEAR      9   5  85 CALM      30.58S
PARIS            N/A      1  -2  85 NE3       30.56F
LEXINGTON      CLEAR     12   7  79 N3        30.55F
SAVANNAH       CLEAR     18   7  62 N5        30.56S WCI  11
$$

TNZ008-025-027-028-033-062-065-066-060800-
NORTH MIDDLE TENNESSEE

CITY           SKY/WX    TMP DP  RH WIND       PRES   REMARKS
NASHVILLE      PTCLDY    14   6  70 N8        30.55S WCI   3
CLARKSVILLE    PTCLDY     7   3  84 NW5       30.58R WCI  -2
SMYRNA         PTCLDY    14   8  77 CALM      30.56S
COOKEVILLE     CLEAR     16  12  86 CALM      30.47R
CROSSVILLE     PTCLDY    15  10  80 NE7       30.40S WCI   5
$$

TNZ061-075-076-078-094-096-097-060800-
SOUTH MIDDLE TENNESSEE

CITY           SKY/WX    TMP DP  RH WIND       PRES   REMARKS
FAYETTEVILLE   CLEAR     16  10  79 N6          N/A  WCI   7
TULLAHOMA      CLEAR     14  10  85 N8          N/A  WCI   3
WINCHESTER     CLEAR     18  12  79 N9        30.47S WCI   6
MCMINNVILLE    CLEAR     18  12  79 N5        30.47S WCI  11
COLUMBIA         N/A     14  10  85 N3        30.52F
SHELBYVILLE    CLEAR     16  10  79 N6        30.52S WCI   7
$$

TNZ017-018-042-046-047-060800-
NORTHEAST TENNESSEE

CITY           SKY/WX    TMP DP  RH WIND       PRES   REMARKS
TRI CITIES     CLOUDY    20  14  77 N6        30.42R WCI  12
ELIZABETHTON   CLOUDY    19  12  73 CALM      30.39R
$$

TNZ012-013-036-069-073-074-060800-
CENTRAL EAST TENNESSEE

CITY           SKY/WX    TMP DP  RH WIND       PRES   REMARKS
KNOXVILLE      CLOUDY    21  16  81 N10       30.44R WCI  10
OAK RIDGE      CLOUDY    20  12  71 VRB5      30.47S WCI  13
GATLINBURG     CLOUDY    23  18  80 NE8       30.42S WCI  14
MORRISTOWN     PTSUNNY   19  16  86 N8        30.41S WCI   9
$$

TNZ083-085-099-060800-
SOUTHEAST TENNESSEE

CITY           SKY/WX    TMP DP  RH WIND       PRES   REMARKS
CHATTANOOGA    CLOUDY    24  13  62 N15       30.46S WCI  11
$$

SKY/WX REPORTED AS FAIR MEANS FEW OR NO CLOUDS BELOW
12 THOUSAND FEET.




USA.gov is the U.S. government's official web portal to all federal, state and local government web resources and services.